Change the Weather History Date:

Saturday, February 23, 2013

  Actual Average (KORH) Record (KORH)
Temperature  
Mean Temperature 32 °F 29 °F  
Max Temperature 37 °F 36 °F 61 °F (1990)
Min Temperature 28 °F 21 °F -9 °F (1972)
Degree Days  
Heating Degree Days 32 36  
Month to date heating degree days 885  
Since 1 July heating degree days 4658  
Cooling Degree Days 0 0  
Month to date cooling degree days 0  
Year to date cooling degree days 0  
Moisture  
Dew Point 28 °F    
Average Humidity 81    
Maximum Humidity 96    
Minimum Humidity 70    
Precipitation  
Precipitation 0.02 in 0.12 in 0.81 in (1897)
Month to date precipitation 2.61  
Year to date precipitation 6.10  
Snow  
Snow 0.00 in 0.50 in 8.10 in (1967)
Month to date snowfall 13.1  
Since 1 July snowfall 47.4  
Snow Depth -    
Sea Level Pressure  
Sea Level Pressure 30.13 in    
Wind  
Wind Speed 3 mph (ESE)    
Max Wind Speed 10 mph    
Max Gust Speed -    
Visibility 8 miles    
Events Rain , Snow    
T = Trace of Precipitation, MM = Missing Value Source: NWS Daily Summary

Daily Weather History Graph

Daily Weather History Graph

Search for Another Location

Airport or City:

Trip Planner

Search our weather history database for the weather conditions in past years. The results will help you decide how hot, cold, wet, or windy it might be!

Date:

Astronomy

Feb. 23, 2013 Rise Set
Actual Time 6:31 AM EST 5:29 PM EST
Civil Twilight 6:03 AM EST 5:58 PM EST
Nautical Twilight 5:30 AM EST 6:30 PM EST
Astronomical Twilight 4:58 AM EST 7:03 PM EST
Moon 3:35 PM EST (2/23) 4:54 AM EST (2/23)
Length of Visible Light 11h 54m
Length of Day
10h 57m
Waxing Gibbous, 95% of the Moon is Illuminated
Feb 23
Waxing Gibbous
Feb 25
Full
Mar 4
Last Quarter
Mar 11
New
Mar 19
First Quarter

Hourly Weather History & Observations

Time (EST) Temp. Windchill Dew Point Humidity Pressure Visibility Wind Dir Wind Speed Gust Speed Precip Events Conditions
12:52 AM 28.0 °F - 23.0 °F 81% 30.32 in 10.0 mi Calm Calm - N/A   Mostly Cloudy
1:52 AM 30.0 °F - 24.1 °F 79% 30.31 in 10.0 mi Calm Calm - N/A   Overcast
2:52 AM 30.0 °F - 23.0 °F 75% 30.30 in 10.0 mi Calm Calm - N/A   Overcast
3:52 AM 30.9 °F - 24.1 °F 76% 30.28 in 10.0 mi Calm Calm - N/A   Overcast
4:52 AM 30.9 °F - 23.0 °F 72% 30.27 in 10.0 mi Calm Calm - N/A   Overcast
5:52 AM 30.9 °F - 24.1 °F 76% 30.26 in 10.0 mi Calm Calm - N/A   Overcast
6:52 AM 30.9 °F - 25.0 °F 79% 30.26 in 10.0 mi Calm Calm - N/A   Overcast
7:52 AM 32.0 °F - 24.1 °F 73% 30.25 in 10.0 mi Calm Calm - N/A   Overcast
8:52 AM 33.1 °F 30.0 °F 24.1 °F 70% 30.24 in 10.0 mi SE 3.5 mph - N/A   Overcast
9:52 AM 33.1 °F 28.7 °F 26.1 °F 75% 30.22 in 10.0 mi SSE 4.6 mph - N/A   Overcast
10:52 AM 35.1 °F 27.9 °F 27.0 °F 72% 30.19 in 10.0 mi SE 9.2 mph - N/A   Overcast
11:36 AM 35.6 °F 28.0 °F 26.6 °F 70% 30.16 in 10.0 mi SSE 10.4 mph - N/A   Overcast
11:52 AM 36.0 °F 29.6 °F 27.0 °F 70% 30.17 in 10.0 mi SSE 8.1 mph - N/A   Overcast
12:52 PM 36.0 °F 29.0 °F 28.0 °F 73% 30.14 in 10.0 mi SE 9.2 mph - N/A   Overcast
1:52 PM 36.0 °F 29.0 °F 28.0 °F 73% 30.14 in 10.0 mi SE 9.2 mph - N/A   Overcast
2:52 PM 36.0 °F 31.1 °F 30.0 °F 79% 30.12 in 10.0 mi ESE 5.8 mph - N/A   Overcast
3:52 PM 36.0 °F 32.1 °F 28.9 °F 76% 30.08 in 10.0 mi ESE 4.6 mph - N/A   Overcast
4:52 PM 37.0 °F 34.5 °F 28.9 °F 73% 30.07 in 10.0 mi ESE 3.5 mph - N/A   Overcast
5:52 PM 35.1 °F 32.2 °F 30.0 °F 82% 30.06 in 7.0 mi East 3.5 mph - 0.00 in Snow Light Snow
6:10 PM 35.6 °F 32.8 °F 30.2 °F 81% 30.05 in 4.0 mi ESE 3.5 mph - 0.00 in Snow Light Snow
6:21 PM 35.6 °F 32.8 °F 30.2 °F 81% 30.05 in 6.0 mi SE 3.5 mph - 0.00 in Snow Light Snow
6:52 PM 34.0 °F 31.0 °F 32.0 °F 92% 30.05 in 3.0 mi ESE 3.5 mph - 0.00 in Snow Light Snow
7:33 PM 33.8 °F 30.8 °F 32.0 °F 93% 30.03 in 3.0 mi ESE 3.5 mph - 0.01 in Snow Light Snow
7:52 PM 34.0 °F 29.8 °F 32.0 °F 92% 30.04 in 5.0 mi East 4.6 mph - 0.01 in Snow Light Snow
8:09 PM 33.8 °F 30.8 °F 32.0 °F 93% 30.02 in 6.0 mi ESE 3.5 mph - 0.00 in   Overcast
8:52 PM 34.0 °F 31.0 °F 32.0 °F 92% 30.01 in 5.0 mi East 3.5 mph - 0.00 in   Overcast
8:59 PM 33.8 °F 29.6 °F 32.0 °F 93% 30.00 in 7.0 mi East 4.6 mph - N/A   Overcast
9:05 PM 33.8 °F 30.8 °F 32.0 °F 93% 30.00 in 8.0 mi East 3.5 mph - N/A   Overcast
9:52 PM 33.1 °F 30.0 °F 32.0 °F 96% 29.99 in 9.0 mi East 3.5 mph - N/A   Overcast
10:52 PM 34.0 °F 31.0 °F 32.0 °F 92% 29.96 in 3.0 mi NE 3.5 mph - 0.01 in Rain Light Rain
11:52 PM 34.0 °F 29.8 °F 32.0 °F 92% 29.93 in 4.0 mi NE 4.6 mph - 0.00 in   Overcast